Location: ??
(34.9170°N, 135.5016°E)
Time: 05:04:15
(UTC+00:00)

Explorer 7 - Pass Details

Date: 01 March 2021
Orbit: 484 x 677 km, 50.3° (Epoch: 14 April)

Event Time Altitude Azimuth Distance (km) Brightness Sun altitude
Rises 11:35:48 0° 315° (NW) 2,667 11.1 -33.8°
Enters shadow 11:38:08 10° 323° (NW) 1,763 9.9 -34.2°
Reaches altitude 10° 11:38:10 10° 323° (NW) 1,746 - -34.2°
Maximum altitude 11:41:53 39° 34° (NE) 760 - -35.0°
Drops below altitude 10° 11:45:27 10° 105° (ESE) 1,674 - -35.7°
Sets 11:47:41 0° 113° (ESE) 2,541 - -36.1°
